Location: Lawrence Hall of Science
(37.8785°N, 122.2415°W)
Time: 20:40:49
(UTC-07:00)

Cosmos 2151 - Visible Passes

Search period start: 25 June 2017 00:00
Search period end: 05 July 2017 00:00
Orbit: 583 x 601 km, 82.5° (Epoch: 25 June)

Date Brightness Start Highest point End Pass type
(mag) Time Alt. Az. Time Alt. Az. Time Alt. Az.
25 Jun 3.2 23:15:39 55° SW 23:16:22 66° W 23:20:40 10° N visible
26 Jun 4.9 21:47:33 13° E 21:48:26 14° E 21:50:37 10° NE visible
26 Jun 4.0 23:24:07 33° WSW 23:25:18 41° W 23:29:24 10° N visible
27 Jun 4.4 21:55:59 19° ESE 21:57:10 21° E 22:00:25 10° NE visible
27 Jun 4.8 23:32:34 21° WSW 23:34:17 27° WNW 23:37:58 10° NNW visible
28 Jun 3.8 22:04:24 25° SE 22:05:57 32° E 22:09:48 10° NNE visible
28 Jun 5.4 23:40:58 12° WSW 23:43:19 18° WNW 23:46:17 10° NNW visible
29 Jun 3.2 22:12:45 27° SSE 22:14:46 51° E 22:18:57 10° NNE visible
29 Jun 5.8 23:50:49 10° W 23:52:24 12° WNW 23:53:59 10° NW visible
30 Jun 2.9 22:21:03 24° S 22:23:38 83° E 22:27:57 10° N visible
01 Jul 3.4 22:29:18 17° SSW 22:32:32 62° W 22:36:49 10° N visible
02 Jul 4.8 21:02:11 10° ESE 21:04:34 15° E 21:06:58 10° NE visible
02 Jul 4.3 22:37:29 10° SSW 22:41:28 39° W 22:45:32 10° N visible
03 Jul 4.3 21:09:58 10° SE 21:13:19 22° E 21:16:41 10° NE visible
03 Jul 5.1 22:46:54 10° SW 22:50:28 25° WNW 22:54:04 10° NNW visible
04 Jul 3.7 21:18:12 10° SSE 21:22:06 34° E 21:26:01 10° NNE visible
04 Jul 5.7 22:56:41 10° WSW 22:59:30 17° WNW 23:02:20 10° NNW visible
